Temperature
4 4 4 4 5 4 4 4 4 4 4 6 5 5 6 7 7 7 7 7 7 7 7 7 6 6 6 5 5 4 4 4 4 4 3 3 3 3 3 2 2 2 2 2
3 4 4 4 4 4 4 4 4 4 5 6 6 6 6 6 6 6 7 7 7 7 7 7 6 6 6 5 5 4 4 4 4 3 3 3 3 2 2 2 2 2 2 1
3 3 3 4 4 4 4 4 4 5 5 5 5 5 6 6 7 7 7 7 7 7 7 7 6 6 6 5 5 4 4 4 3 3 3 3 2 2 2 2 1 1 1 1
2 3 5 6 6 4 4 4 4 4 4 4 5 6 7 7 7 7 7 7 7 7 7 7 6 6 6 5 5 4 4 4 3 3 3 2 2 2 1 1 1 1 1 0
3 2 3 5 5 4 4 5 5 4 5 5 6 5 6 8 8 8 7 7 7 6 6 6 6 6 5 5 5 4 4 3 3 3 2 2 2 1 1 1 1 0 0 -0
3 3 5 7 6 6 5 6 6 5 4 5 5 4 5 8 7 7 7 7 6 6 6 6 6 5 5 5 5 4 4 3 3 2 2 2 1 1 1 1 0 -0 -0 -1
2 3 4 4 6 6 6 7 8 7 7 6 4 6 7 7 7 7 7 6 6 6 6 6 5 5 5 5 5 4 4 3 3 2 2 1 1 1 0 0 -0 -1 -1 -1
2 3 4 5 4 5 6 7 7 7 7 7 7 7 7 7 7 6 6 6 6 6 6 5 5 5 5 5 4 4 3 3 2 2 1 1 1 0 0 -0 -1 -1 -1 -2
3 5 6 6 6 7 7 7 7 7 7 6 6 6 6 6 6 6 6 6 6 5 5 5 5 4 4 4 4 3 3 3 2 2 1 1 0 0 -0 -1 -1 -1 -2 -2
1 2 4 6 6 7 7 6 6 6 6 6 6 6 6 6 6 6 6 5 5 5 5 5 4 4 4 4 3 3 3 2 2 1 1 0 -0 -0 -1 -1 -1 -2 -2 -2
1 2 4 6 7 7 7 6 6 6 6 5 5 5 5 5 5 5 5 5 5 5 5 5 4 4 4 3 3 3 2 2 1 1 1 0 -0 -1 -1 -1 -2 -2 -3 -3
4 5 3 5 7 6 6 6 5 5 5 5 5 5 5 5 5 5 5 5 4 4 4 4 4 4 3 3 3 2 2 2 1 1 0 -0 -1 -1 -2 -2 -2 -3 -3 -4
5 5 5 5 5 5 5 5 5 5 5 5 5 5 4 4 5 4 4 4 4 4 4 4 3 3 3 3 2 2 2 1 1 0 -0 -1 -1 -2 -2 -2 -3 -3 -4 -4
5 4 4 5 4 4 4 4 4 4 5 4 4 4 4 4 4 4 4 4 4 3 3 3 3 3 3 2 2 2 1 1 0 -0 -1 -1 -1 -2 -2 -3 -3 -3 -4 -4
4 3 3 4 4 4 4 4 4 4 4 4 4 4 4 4 4 4 4 4 3 3 3 3 3 3 2 2 2 1 1 0 -0 -0 -1 -1 -2 -2 -3 -3 -4 -4 -4 -5
3 3 3 3 3 3 3 3 3 4 4 4 4 4 4 4 4 4 3 3 3 3 3 3 3 2 2 2 1 1 0 -0 -1 -1 -1 -2 -2 -3 -3 -4 -4 -4 -5 -5
2 2 3 3 3 3 3 3 3 3 3 3 3 3 3 3 3 3 3 3 2 2 2 2 2 2 2 1 1 0 -0 -0 -1 -1 -2 -2 -3 -3 -4 -4 -4 -5 -5 -5
3 2 2 2 2 3 3 3 3 3 3 3 3 3 3 3 3 3 3 2 2 2 2 2 1 1 1 1 0 -0 -1 -1 -1 -2 -2 -3 -3 -4 -4 -4 -5 -5 -5 -6
3 3 3 3 2 2 3 3 3 3 3 3 3 3 3 2 2 2 2 2 2 2 2 1 1 1 0 0 -0 -1 -1 -1 -2 -2 -3 -3 -4 -4 -4 -5 -5 -5 -6 -6
3 3 3 3 3 3 3 3 3 3 3 3 2 2 2 2 2 2 2 2 2 1 1 1 1 0 0 -0 -1 -1 -1 -2 -2 -3 -3 -4 -4 -4 -5 -5 -5 -6 -6 -6
3 3 3 3 3 3 3 3 3 3 3 2 2 2 2 2 2 1 1 1 1 1 0 0 0 -0 -1 -1 -1 -2 -2 -2 -3 -3 -4 -4 -4 -5 -5 -5 -6 -6 -6 -7
3 3 3 3 2 2 2 2 2 2 2 2 2 2 1 1 1 1 1 1 1 0 -0 -0 -0 -1 -1 -1 -2 -2 -2 -3 -3 -4 -4 -4 -5 -5 -5 -6 -6 -6 -6 -7
2 2 2 2 2 2 2 2 2 2 2 2 1 1 1 1 1 1 1 1 0 -0 -0 -0 -1 -1 -1 -2 -2 -2 -3 -3 -4 -4 -4 -5 -5 -5 -6 -6 -6 -6 -7 -7
2 2 2 2 1 1 2 2 2 1 1 1 1 1 1 1 1 1 0 0 -0 -0 -1 -1 -1 -1 -2 -2 -2 -3 -3 -4 -4 -4 -5 -5 -5 -6 -6 -6 -7 -7 -7 -7
1 1 1 1 1 1 1 1 1 1 1 1 1 1 1 0 0 0 -0 -0 -0 -1 -1 -1 -1 -2 -2 -2 -3 -3 -3 -4 -4 -5 -5 -5 -6 -6 -6 -7 -7 -7 -7 -7
0 0 0 0 1 1 1 0 0 0 0 0 1 1 0 0 -0 -0 -0 -1 -1 -1 -1 -1 -2 -2 -2 -3 -3 -3 -4 -4 -5 -5 -5 -6 -6 -6 -7 -7 -7 -7 -7 -8
-0 0 0 0 1 0 0 -0 -0 -0 -0 -0 -0 -0 -0 -0 -1 -1 -1 -1 -1 -1 -2 -2 -2 -2 -3 -3 -3 -4 -4 -5 -5 -5 -6 -6 -6 -6 -7 -7 -7 -8 -8 -8
Wind_Speed
7 7 6 8 9 8 10 9 9 9 9 14 9 9 8 8 7 7 7 7 6 6 6 6 5 5 5 5 4 4 4 4 3 2 2 1 1 0 1 1 2 2 3 3
5 4 6 9 13 13 13 11 13 13 15 13 8 5 7 8 8 8 8 8 7 6 6 6 7 6 6 6 5 5 5 5 4 3 2 2 1 1 0 1 1 2 2 2
5 6 7 9 10 12 7 8 9 13 12 7 6 8 8 8 8 9 9 8 7 7 7 7 7 7 7 7 5 5 6 5 4 4 3 3 2 2 1 1 0 1 1 2
4 6 6 6 1 6 7 8 11 10 9 8 9 8 8 8 8 9 8 7 7 6 6 6 5 5 5 5 5 6 5 5 4 4 4 3 3 3 2 2 2 1 1 2
1 4 9 9 4 4 5 7 8 11 11 9 5 5 6 6 7 8 8 7 7 6 5 4 5 5 5 5 5 5 6 6 5 5 5 4 4 4 3 2 2 2 2 2
2 3 6 5 1 2 2 6 4 6 7 5 1 2 6 4 4 6 6 5 5 4 4 4 4 4 6 6 6 7 7 6 5 5 6 5 5 4 3 2 2 2 2 2
6 6 10 8 3 3 2 5 2 4 5 4 6 7 6 5 5 6 6 6 5 4 5 5 4 5 6 7 9 8 6 5 5 5 6 5 4 3 3 2 2 2 3 3
6 7 10 5 5 6 7 4 3 3 5 6 8 8 8 7 7 7 6 6 4 4 5 4 4 6 7 8 7 5 5 5 5 5 5 4 4 3 3 3 3 3 3 4
10 11 6 4 7 5 3 4 5 5 6 6 8 8 8 7 7 7 7 6 5 5 6 5 5 7 8 7 5 5 5 5 5 5 4 4 4 4 3 3 3 3 3 4
7 12 10 9 8 7 7 7 8 8 8 7 9 10 9 8 7 7 7 6 5 5 6 6 6 7 8 5 5 6 6 5 5 5 4 4 4 4 4 4 4 4 4 4
9 10 9 8 7 8 8 8 8 8 8 9 10 11 9 8 8 7 7 6 5 6 8 8 6 7 6 5 6 6 6 5 5 5 5 4 4 5 5 5 6 5 5 4
10 8 6 8 7 6 7 8 9 9 9 8 8 10 9 8 8 7 7 6 6 7 8 7 6 7 6 6 7 7 6 6 5 5 4 4 4 4 6 7 8 9 8 7
11 9 9 11 9 7 7 8 9 9 10 10 8 8 8 8 7 7 7 7 8 8 8 7 6 7 6 7 8 8 7 6 5 5 5 5 4 4 3 4 6 7 8 8
10 8 9 9 9 8 9 9 8 8 8 8 8 7 7 7 7 8 9 8 7 7 7 7 7 8 6 7 8 8 7 7 6 5 5 5 5 4 4 3 3 3 5 7
9 9 10 10 10 9 8 6 7 8 8 8 6 7 7 8 9 9 8 6 5 6 7 7 8 8 6 7 8 7 6 5 5 5 5 5 4 4 4 4 4 4 3 4
8 8 9 9 10 9 8 7 8 9 8 8 8 8 8 8 9 8 7 6 6 8 8 7 8 7 6 7 7 6 6 8 7 5 5 4 4 5 4 4 4 4 4 4
7 8 7 8 9 9 8 8 8 9 8 9 9 8 7 7 7 8 8 6 7 8 8 8 8 6 6 7 7 6 5 6 9 6 5 5 5 5 5 5 5 5 5 5
8 9 9 9 9 9 10 9 8 9 9 9 8 7 7 7 8 9 7 5 5 6 7 7 6 6 6 7 6 5 5 5 5 5 5 5 5 5 5 5 5 5 4 5
7 8 9 9 8 8 9 9 9 8 8 8 7 8 8 8 8 7 6 5 6 8 6 5 7 6 6 7 7 5 6 6 5 5 5 7 6 5 5 5 5 5 5 4
6 7 7 8 7 6 8 9 8 9 8 7 7 8 8 8 7 6 6 7 7 7 5 5 5 5 6 7 8 5 6 6 6 5 5 5 5 5 5 5 5 5 5 5
8 8 8 8 8 8 8 8 8 9 9 7 8 9 10 9 7 6 5 8 7 5 5 7 5 4 5 6 8 5 6 6 6 6 6 6 6 5 5 5 5 5 5 5
8 8 9 9 9 10 9 8 8 9 9 8 9 8 8 9 8 7 7 7 7 7 5 4 4 7 7 7 5 6 6 6 6 5 6 6 6 6 6 6 5 5 5 4
9 9 10 10 10 10 10 9 9 9 9 10 9 9 9 9 6 6 8 5 5 7 5 5 7 10 10 6 5 6 6 6 6 6 6 6 6 6 6 6 5 5 5 5
10 10 10 9 8 8 11 12 9 8 9 9 9 9 8 7 7 7 7 7 8 8 6 7 10 11 10 5 5 5 6 6 6 6 6 5 5 5 5 5 5 5 5 5
11 11 10 9 9 10 11 10 9 9 9 8 9 9 8 7 7 6 5 6 9 8 5 8 11 10 6 4 6 6 6 6 6 6 6 6 5 5 5 5 5 5 5 5
11 10 10 10 9 9 8 8 8 8 7 8 8 6 6 5 6 6 5 6 8 8 6 5 5 7 5 5 6 6 6 6 6 6 6 6 6 6 5 5 6 5 5 5
10 10 9 9 9 9 8 8 9 9 8 8 8 7 6 5 5 5 6 5 5 5 5 4 4 5 5 5 5 6 5 5 5 5 5 5 5 5 5 6 5 4 4 4
Wind_Direction
257 262 247 242 238 214 212 213 223 245 249 266 263 258 262 264 265 266 268 264 254 248 246 239 234 228 219 217 207 194 185 188 204 203 184 166 145 64 32 30 26 16 16 9
288 273 264 261 247 229 230 231 240 261 273 269 267 251 257 259 257 258 260 260 259 253 244 236 231 227 220 218 207 189 192 201 201 188 182 183 191 180 78 18 2 11 5 356
287 310 318 272 239 208 209 213 208 235 247 268 276 262 255 254 252 252 255 257 257 253 243 237 229 218 216 214 195 186 197 202 197 192 195 200 190 182 207 234 252 316 325 339
299 342 272 249 221 189 214 239 219 235 254 257 253 266 262 247 243 251 251 254 256 251 249 242 228 217 210 193 185 192 200 204 202 196 203 201 193 207 222 221 228 249 283 299
277 294 280 291 254 183 202 270 225 228 253 263 277 307 289 248 225 236 244 249 249 247 246 239 231 212 191 190 189 195 206 210 206 199 202 203 209 218 218 211 232 246 262 277
202 259 260 261 247 177 137 284 246 206 242 255 153 297 279 271 255 259 261 256 253 253 242 237 229 190 185 196 197 210 213 211 202 196 198 208 215 217 215 211 229 249 273 270
220 245 268 258 238 128 191 262 288 212 238 219 212 233 262 284 277 263 264 263 255 249 242 238 212 184 197 203 215 218 205 197 196 196 200 205 205 204 205 212 228 252 268 275
193 220 256 230 150 188 227 276 278 259 249 243 250 265 274 275 273 271 270 269 262 253 257 247 201 190 209 221 221 198 188 194 201 200 201 197 192 203 202 200 218 246 261 276
202 221 247 206 213 238 247 271 272 264 265 261 264 269 273 273 272 269 261 258 251 245 257 253 215 201 218 228 200 184 188 200 204 198 199 193 192 200 204 204 216 241 249 265
253 261 261 260 257 262 258 256 264 265 269 263 263 267 270 272 272 267 262 255 248 243 250 253 232 220 225 217 185 184 196 203 197 194 201 200 203 204 206 210 218 234 246 257
257 274 295 279 253 260 268 266 266 267 264 259 261 266 264 268 269 264 262 257 242 238 245 250 241 233 226 201 182 190 199 201 198 200 200 203 211 215 218 218 215 226 233 237
246 244 241 271 277 273 273 273 273 277 279 271 256 260 265 265 265 263 260 255 251 247 246 250 241 238 225 198 188 189 199 202 200 199 201 202 210 240 245 239 245 248 249 251
250 266 259 271 281 271 268 275 278 272 269 276 271 259 260 264 265 262 260 254 249 248 247 247 242 240 226 200 193 196 203 202 199 198 199 202 206 215 244 260 253 255 259 264
257 269 276 272 274 278 276 277 279 276 272 268 269 269 266 267 270 264 260 255 252 252 250 242 239 241 224 199 196 201 201 203 199 199 198 202 207 211 217 231 256 264 264 269
260 245 255 275 284 285 284 283 288 288 287 283 274 269 268 268 269 268 266 261 255 253 250 240 239 242 213 195 197 199 198 200 197 196 197 201 203 205 213 223 238 254 265 274
279 273 267 271 277 282 287 286 284 285 287 284 282 277 270 266 269 273 269 250 243 252 250 242 242 236 204 194 195 197 203 206 197 194 196 199 201 206 213 219 230 241 252 258
278 285 285 288 287 287 282 275 271 276 281 280 278 281 281 279 279 276 270 255 246 249 247 241 242 228 203 195 192 196 197 202 200 197 200 202 204 209 212 216 227 239 247 255
247 258 263 267 275 281 284 282 276 276 274 274 280 280 274 269 269 272 275 277 274 270 256 240 227 211 203 197 193 192 192 196 195 200 203 204 209 209 210 218 228 240 251 259
268 266 269 268 266 267 271 276 278 275 275 275 273 272 270 267 266 269 268 261 259 268 264 234 213 203 202 202 195 191 191 195 200 204 205 213 215 208 211 219 228 234 242 249
280 277 276 277 273 263 269 275 276 277 274 267 269 272 274 271 265 262 259 259 253 248 244 234 220 211 207 204 196 191 195 199 202 204 204 206 209 213 215 221 226 232 237 242
284 282 281 281 282 276 269 268 271 275 276 264 259 264 268 271 263 253 254 271 270 241 231 227 219 211 205 204 200 194 198 203 205 206 207 209 212 216 218 220 226 232 236 242
283 281 280 281 282 284 281 272 265 269 273 269 263 261 263 266 261 256 247 249 258 246 239 228 220 217 214 212 201 198 203 205 208 208 209 209 212 217 219 220 225 231 233 236
275 272 274 275 276 280 285 280 268 263 263 263 261 259 257 256 251 253 268 251 235 238 235 230 228 226 224 214 203 202 204 207 210 212 212 211 212 215 218 221 226 229 231 237
276 274 272 273 274 278 282 281 272 262 258 259 256 252 251 258 262 246 246 248 245 247 243 236 233 231 225 209 203 205 207 210 212 212 210 209 210 211 215 219 225 229 232 237
272 272 272 272 273 272 271 276 278 273 266 265 260 253 244 237 245 254 243 239 241 246 246 237 234 230 219 206 206 208 209 211 211 208 207 207 209 212 216 218 220 226 232 237
268 269 268 263 261 266 269 269 270 271 267 271 272 261 249 242 239 243 243 238 236 239 239 234 226 221 210 208 209 208 208 215 223 215 205 206 209 210 215 218 222 225 230 236
267 268 270 272 267 257 254 254 258 263 258 256 267 267 255 248 243 240 239 237 235 232 230 226 217 210 209 208 206 205 203 202 204 204 202 204 206 210 214 216 220 224 229 237
Height
1519 1516 1516 1514 1512 1513 1514 1512 1512 1503 1499 1486 1485 1485 1483 1481 1480 1479 1478 1478 1477 1476 1476 1475 1475 1475 1475 1475 1475 1475 1474 1474 1473 1473 1472 1472 1471 1470 1468 1467 1466 1464 1463 1462
1519 1513 1514 1511 1505 1506 1505 1504 1501 1498 1492 1480 1480 1480 1479 1478 1477 1476 1475 1474 1473 1473 1472 1472 1471 1472 1472 1472 1472 1472 1471 1471 1471 1470 1470 1469 1468 1467 1466 1465 1464 1462 1461 1459
1521 1516 1511 1504 1493 1494 1496 1493 1493 1492 1484 1478 1478 1477 1475 1474 1473 1472 1471 1471 1470 1469 1469 1468 1468 1468 1468 1468 1468 1468 1468 1468 1468 1467 1467 1466 1465 1464 1463 1462 1461 1459 1458 1456
1523 1518 1509 1490 1484 1485 1487 1485 1484 1481 1478 1476 1474 1473 1471 1470 1469 1468 1468 1467 1467 1466 1465 1465 1465 1464 1464 1464 1464 1464 1464 1464 1464 1464 1463 1463 1462 1461 1460 1459 1457 1456 1454 1453
1523 1522 1508 1488 1483 1483 1485 1481 1475 1476 1474 1472 1472 1471 1468 1467 1466 1466 1465 1464 1464 1463 1462 1461 1461 1460 1460 1460 1460 1460 1460 1461 1461 1460 1460 1459 1458 1457 1456 1455 1454 1453 1451 1450
1522 1517 1503 1482 1480 1479 1482 1478 1470 1471 1470 1470 1471 1473 1467 1464 1463 1463 1462 1461 1460 1459 1458 1457 1457 1456 1456 1456 1456 1456 1456 1457 1457 1456 1456 1455 1454 1454 1453 1451 1450 1449 1448 1446
1519 1515 1499 1482 1478 1480 1484 1475 1469 1468 1468 1468 1468 1466 1464 1461 1460 1459 1458 1457 1456 1455 1454 1453 1453 1452 1451 1451 1451 1452 1452 1452 1452 1452 1451 1451 1450 1449 1448 1447 1446 1445 1444 1442
1513 1512 1496 1475 1477 1478 1474 1468 1467 1466 1465 1464 1462 1461 1459 1458 1456 1455 1454 1453 1452 1450 1449 1449 1448 1448 1447 1447 1447 1448 1448 1448 1447 1447 1447 1446 1445 1445 1444 1443 1441 1440 1439 1438
1495 1486 1473 1471 1470 1468 1468 1467 1465 1464 1462 1461 1459 1457 1455 1453 1452 1450 1449 1448 1447 1446 1445 1445 1444 1443 1443 1443 1443 1443 1443 1443 1443 1443 1442 1442 1441 1440 1439 1438 1437 1436 1435 1433
1488 1475 1469 1467 1466 1465 1465 1463 1462 1460 1459 1457 1454 1452 1450 1449 1447 1446 1444 1443 1442 1441 1440 1439 1439 1439 1438 1438 1438 1438 1438 1438 1438 1437 1437 1437 1436 1435 1435 1434 1432 1431 1430 1429
1481 1470 1466 1462 1461 1461 1460 1458 1457 1455 1454 1452 1449 1447 1445 1443 1442 1440 1439 1438 1437 1436 1435 1434 1434 1433 1433 1433 1433 1433 1433 1433 1433 1433 1432 1432 1431 1430 1429 1429 1428 1427 1425 1424
1470 1464 1464 1459 1458 1457 1455 1454 1452 1450 1447 1446 1444 1442 1440 1438 1437 1435 1434 1433 1432 1430 1429 1428 1428 1427 1428 1427 1427 1427 1427 1427 1427 1427 1427 1426 1426 1425 1424 1424 1423 1422 1421 1420
1461 1459 1458 1455 1454 1453 1451 1448 1447 1445 1442 1440 1438 1437 1435 1433 1431 1430 1429 1427 1426 1425 1424 1423 1422 1422 1422 1422 1422 1421 1421 1422 1422 1422 1421 1421 1420 1420 1419 1419 1418 1417 1416 1415
1457 1456 1452 1450 1449 1447 1445 1443 1441 1439 1437 1435 1433 1431 1429 1427 1426 1424 1423 1422 1421 1420 1418 1418 1417 1416 1416 1416 1416 1416 1416 1416 1416 1416 1416 1416 1415 1415 1414 1414 1413 1412 1412 1410
1451 1450 1448 1445 1443 1441 1440 1437 1435 1433 1431 1429 1428 1426 1424 1422 1420 1419 1418 1417 1415 1414 1413 1412 1411 1411 1411 1410 1410 1410 1410 1410 1410 1411 1410 1410 1410 1410 1409 1409 1408 1407 1406 1406
1445 1444 1442 1440 1438 1436 1434 1432 1430 1428 1426 1424 1422 1421 1419 1417 1415 1414 1412 1411 1409 1408 1407 1406 1405 1405 1405 1404 1404 1404 1405 1405 1405 1405 1405 1405 1405 1404 1404 1403 1403 1402 1401 1400
1441 1438 1436 1435 1433 1431 1430 1429 1427 1424 1422 1420 1418 1416 1414 1412 1410 1408 1407 1406 1404 1402 1401 1400 1399 1399 1398 1398 1398 1398 1399 1399 1399 1399 1399 1399 1399 1399 1399 1398 1398 1397 1396 1396
1437 1435 1434 1432 1430 1428 1426 1425 1423 1421 1418 1416 1414 1411 1409 1407 1405 1403 1401 1399 1398 1396 1395 1394 1393 1392 1392 1393 1393 1393 1393 1393 1394 1394 1394 1394 1394 1394 1393 1393 1392 1392 1391 1391
1433 1432 1430 1428 1426 1424 1422 1420 1419 1417 1414 1412 1409 1407 1404 1402 1400 1398 1396 1394 1392 1390 1389 1389 1388 1387 1387 1387 1387 1387 1388 1388 1388 1388 1388 1388 1388 1388 1388 1388 1387 1387 1386 1386
1430 1428 1426 1424 1422 1420 1418 1416 1414 1412 1410 1407 1404 1401 1399 1397 1395 1392 1390 1388 1387 1385 1384 1383 1382 1381 1382 1382 1382 1382 1382 1382 1382 1382 1383 1383 1383 1383 1383 1382 1382 1382 1381 1381
1426 1424 1422 1419 1417 1415 1414 1411 1409 1406 1404 1402 1399 1396 1393 1391 1389 1387 1384 1382 1382 1381 1379 1378 1377 1376 1376 1376 1376 1376 1376 1376 1376 1377 1377 1377 1377 1377 1377 1377 1377 1377 1376 1376
1422 1419 1417 1415 1412 1410 1408 1406 1403 1401 1398 1396 1393 1390 1388 1385 1383 1381 1379 1378 1376 1375 1374 1373 1372 1372 1371 1371 1370 1370 1370 1371 1371 1371 1371 1371 1372 1372 1372 1372 1372 1372 1372 1371
1416 1414 1412 1409 1407 1404 1401 1399 1397 1395 1392 1389 1387 1384 1381 1379 1377 1375 1373 1372 1371 1370 1368 1368 1367 1367 1366 1365 1365 1365 1365 1365 1365 1365 1366 1366 1366 1367 1367 1367 1367 1367 1367 1366
1410 1408 1405 1403 1400 1397 1394 1392 1390 1387 1385 1382 1380 1377 1375 1372 1370 1369 1368 1366 1365 1364 1363 1362 1362 1361 1361 1360 1360 1360 1359 1360 1360 1360 1361 1361 1361 1361 1362 1362 1362 1362 1362 1362
1403 1400 1398 1395 1392 1390 1387 1384 1381 1379 1376 1374 1372 1370 1368 1366 1364 1363 1362 1360 1359 1358 1357 1357 1356 1355 1355 1354 1354 1354 1354 1354 1354 1355 1355 1356 1356 1356 1357 1357 1357 1357 1357 1357
1394 1392 1389 1387 1384 1382 1379 1376 1373 1371 1368 1365 1363 1362 1361 1359 1358 1356 1355 1354 1353 1352 1352 1351 1350 1350 1349 1349 1348 1349 1349 1349 1349 1350 1350 1351 1351 1351 1352 1352 1353 1353 1352 1352
1384 1382 1380 1377 1375 1373 1371 1368 1365 1363 1361 1358 1356 1355 1354 1352 1351 1349 1348 1347 1346 1346 1346 1345 1344 1344 1343 1343 1343 1343 1343 1344 1344 1345 1345 1346 1346 1347 1347 1348 1348 1348 1348 1348